Theta_e
310 308 308 309 306 305 306 308 310 310 310 311 310 309 308 312 310 311 313 313 313 313 313 313 313 314 314 314 316 317 318 319 324 328 332 333 332 331 331 331 330 330 330 331
308 307 307 306 307 308 309 310 311 309 310 311 308 308 307 308 309 310 310 311 311 311 311 311 313 313 313 314 314 314 315 316 317 322 324 329 329 330 330 331 330 331 330 330
308 308 306 308 308 309 309 309 309 310 308 306 305 305 304 306 307 308 308 308 310 311 311 312 313 313 313 312 313 314 314 314 315 318 322 326 329 329 330 329 330 330 331 331
308 308 308 308 308 307 310 308 308 308 308 308 305 305 306 305 304 305 308 310 311 312 313 313 313 313 314 314 315 314 314 314 314 314 318 320 322 324 322 324 326 328 330 330
309 309 308 310 310 308 310 308 308 308 307 308 308 306 305 303 307 305 307 311 312 313 314 314 314 314 314 314 314 314 314 314 314 313 313 315 319 322 324 325 326 327 328 329
308 309 309 308 308 308 306 306 305 305 304 305 306 304 304 305 307 308 308 311 312 313 313 314 314 314 314 314 314 314 314 313 314 314 314 313 314 316 320 323 325 326 327 328
310 310 309 309 309 308 306 305 306 307 306 305 305 305 304 306 306 308 308 310 312 312 313 313 313 313 314 314 314 314 314 314 314 314 313 313 314 316 318 320 323 325 327 328
309 311 310 309 309 309 306 306 306 306 305 306 306 308 306 305 305 309 310 311 312 313 313 313 313 313 314 314 314 314 314 314 314 314 314 313 312 313 313 315 316 318 320 320
308 309 309 308 308 309 309 307 304 305 294 305 305 306 306 306 307 308 310 311 312 312 312 312 313 313 313 313 313 313 314 314 314 314 314 314 313 313 313 312 312 312 313 313
309 310 308 308 309 308 308 305 308 304 303 305 305 306 305 309 309 308 308 310 311 312 312 313 313 313 313 313 313 313 313 313 313 313 313 313 313 313 313 312 312 312 312 312
308 311 309 309 309 308 308 308 306 307 306 307 306 306 303 308 307 307 308 310 311 311 312 312 312 312 312 312 312 312 312 313 313 313 313 313 313 313 313 312 312 312 311 311
309 309 309 309 307 306 307 308 307 308 307 305 307 308 306 306 307 308 309 309 310 311 312 312 311 311 311 311 311 311 311 311 311 311 312 312 312 313 313 313 312 312 311 311
308 309 305 310 309 307 308 307 306 305 305 306 309 308 304 306 307 308 308 309 310 310 310 310 310 310 310 309 309 308 308 308 307 307 307 307 308 308 310 311 312 312 312 312
310 308 311 313 312 308 310 310 306 308 309 309 308 306 305 305 306 307 308 308 308 308 307 307 307 307 307 307 307 307 307 307 307 306 306 307 307 308 309 310 310 310 311 311
310 309 311 310 310 310 310 310 308 308 309 310 309 306 309 306 306 307 307 305 305 305 305 305 305 305 305 305 306 306 306 306 306 305 305 306 307 308 308 308 308 309 309 309
309 312 310 311 310 310 311 310 309 310 310 311 311 311 308 309 307 305 305 304 303 303 302 302 302 303 303 303 303 303 303 303 303 303 303 304 304 305 305 306 307 307 307 308
309 309 312 313 307 310 314 308 308 308 308 308 311 308 305 306 306 306 305 303 303 302 301 301 300 300 300 301 301 301 301 301 301 301 302 303 303 303 304 304 305 305 306 307
307 308 308 303 306 313 304 299 303 308 307 307 305 304 304 305 306 303 303 303 301 299 298 297 297 298 298 298 298 299 300 300 300 300 301 301 301 301 301 302 302 303 305 305
304 304 300 305 305 302 302 301 301 305 305 304 304 301 302 302 301 302 302 301 299 297 296 296 295 295 296 295 295 295 296 296 296 297 298 298 298 299 299 299 300 301 304 305
303 303 307 298 302 303 301 298 299 299 300 298 303 300 300 300 299 296 302 300 297 296 296 296 295 295 295 294 294 294 294 294 294 294 295 296 296 296 298 299 299 300 302 303
305 302 304 295 295 295 296 296 298 297 298 297 299 301 300 298 300 302 301 299 297 296 295 295 295 294 294 293 292 292 292 292 293 293 293 295 296 296 296 298 299 300 301 301
307 307 306 300 302 303 298 297 298 297 299 301 302 302 299 299 299 299 299 296 295 295 295 294 293 293 292 292 292 292 292 292 292 292 292 293 294 296 296 297 298 298 298 298
301 301 301 302 303 297 297 298 299 300 302 301 299 299 299 297 296 295 294 294 293 293 293 293 293 292 292 291 291 291 291 292 291 291 291 292 293 294 296 296 296 296 296 296
293 295 296 298 296 296 298 298 299 300 299 299 299 297 296 296 296 295 294 294 293 292 292 292 291 291 290 290 291 290 290 290 291 291 291 292 292 293 294 294 294 295 295 295
294 294 293 293 293 296 296 297 299 298 298 297 295 295 294 294 293 293 292 292 291 291 291 290 290 290 290 290 290 289 289 289 289 290 290 291 291 292 293 293 292 293 293 292
293 293 295 294 295 296 297 298 298 297 296 294 294 293 292 291 291 291 291 290 290 290 290 289 289 289 289 290 290 290 289 288 288 289 289 289 290 291 291 291 291 291 290 290
Wind_Speed
3 4 6 9 5 3 7 4 3 1 1 3 5 6 11 21 16 19 21 19 20 22 22 21 23 23 24 24 28 30 30 30 34 36 37 39 39 36 35 35 35 34 32 31
5 5 6 7 5 6 5 5 3 1 3 2 4 9 9 14 14 16 20 18 12 12 14 11 9 18 23 22 22 25 28 31 32 35 36 39 39 39 37 37 36 37 36 35
7 2 11 6 4 6 2 5 3 3 2 4 5 7 6 4 5 12 9 9 8 9 7 5 3 1 5 15 19 21 22 28 32 35 37 40 42 43 42 41 40 40 40 39
4 3 8 6 4 5 4 6 5 5 4 2 3 4 6 5 8 7 16 15 15 16 16 14 13 13 12 9 3 11 17 20 23 30 37 40 41 43 39 39 39 41 41 41
4 7 5 4 5 6 4 4 5 3 5 3 4 2 7 5 4 7 13 17 20 21 22 21 20 18 17 14 12 10 5 5 11 19 25 32 38 40 41 41 41 39 39 39
3 1 2 5 4 3 9 7 7 5 3 1 2 4 5 1 3 3 7 18 22 29 32 33 31 29 29 27 24 21 16 11 7 6 9 16 22 28 34 37 39 39 39 38
2 1 1 4 7 4 4 6 2 3 2 4 1 2 7 3 2 2 6 15 20 24 29 29 27 26 24 25 25 25 25 23 19 13 9 8 12 17 22 27 31 33 35 36
7 4 7 4 5 9 6 6 5 7 4 2 3 5 4 2 4 9 14 21 23 23 22 22 22 21 21 20 19 19 19 19 19 18 17 13 11 14 17 21 24 27 30 30
5 3 0 2 3 6 5 4 4 7 3 3 3 4 2 2 5 11 14 18 19 19 18 18 17 18 17 18 18 18 17 16 16 15 15 14 13 11 12 14 18 21 23 24
7 3 2 1 3 3 4 8 4 3 4 3 3 5 6 4 5 2 8 12 13 14 16 15 13 13 14 14 14 14 15 16 15 15 15 16 16 15 14 12 11 14 16 18
5 4 0 3 6 8 3 3 5 5 4 5 3 6 7 11 7 7 7 9 10 10 11 12 13 13 14 13 12 12 12 13 13 15 16 17 17 18 19 19 20 21 22 22
5 5 4 6 2 1 1 6 6 5 5 1 3 4 7 10 11 9 7 6 8 9 8 9 10 12 14 15 16 17 16 17 19 19 19 20 20 21 22 24 25 26 27 27
7 3 3 4 3 3 4 4 3 5 3 7 6 5 5 10 8 6 10 11 10 8 8 9 10 12 14 14 16 18 20 22 24 26 27 27 27 26 24 24 25 28 31 33
5 3 7 13 4 7 6 6 5 6 4 5 6 7 9 9 5 7 9 9 9 8 8 9 10 12 14 17 19 21 23 25 26 27 28 29 29 29 29 28 27 27 28 31
3 5 3 3 4 2 4 7 10 10 15 9 8 9 18 12 7 13 11 11 9 8 8 9 11 12 14 16 19 21 24 27 28 28 29 31 32 32 31 31 29 28 28 29
4 3 3 2 2 4 2 3 6 2 4 5 5 4 6 6 13 11 9 6 7 7 9 11 13 16 21 23 24 24 24 26 28 30 31 33 35 35 36 36 36 35 33 32
3 4 3 4 1 4 5 8 7 4 3 7 6 6 8 4 7 8 8 5 4 5 8 11 14 16 17 19 21 23 25 27 29 31 32 33 35 37 37 39 39 38 37 37
6 6 2 2 2 4 3 3 4 7 5 7 3 6 10 11 9 8 7 8 4 4 6 9 11 12 15 17 20 22 24 27 29 31 34 36 38 39 40 41 41 41 41 39
1 6 3 4 3 4 3 4 7 7 7 8 6 8 9 10 5 4 11 7 4 2 6 8 11 13 15 19 21 23 24 26 29 31 33 34 37 39 40 41 41 41 42 41
2 4 3 4 4 6 3 1 6 6 5 6 13 10 15 14 3 3 20 5 1 5 9 12 14 17 20 23 27 29 29 31 32 33 35 36 37 38 40 40 40 39 38 40
4 2 6 4 3 7 6 6 10 6 7 6 9 15 17 5 4 11 14 3 7 11 14 17 20 23 26 28 31 32 32 32 35 36 37 38 38 39 40 41 40 39 38 39
8 7 4 3 2 9 15 6 10 5 7 12 11 10 8 7 6 9 8 7 10 14 18 22 27 30 30 30 32 35 36 36 37 38 38 38 38 39 39 39 40 40 41 41
3 5 6 8 5 1 21 4 9 11 18 13 11 8 7 4 2 6 10 14 17 19 22 26 30 35 36 34 34 36 36 37 38 39 40 39 39 38 38 38 39 41 40 39
3 3 3 3 2 6 11 12 15 16 14 12 11 11 6 7 11 16 20 23 25 26 28 31 34 37 39 37 36 35 37 39 41 43 42 41 41 41 39 37 36 38 38 37
4 10 6 1 3 10 8 12 17 14 15 13 9 7 10 14 18 22 23 24 27 29 31 33 36 38 40 40 42 42 41 42 44 45 44 43 41 40 41 41 37 36 34 32
9 6 5 4 18 8 15 20 19 18 15 8 10 14 16 17 18 21 23 25 28 31 33 36 38 39 39 39 40 40 40 41 43 44 43 42 41 40 39 39 38 30 29 25
Wind_Direction
99 103 184 188 169 121 129 125 159 196 346 153 226 263 277 288 283 279 278 282 282 278 281 275 260 250 249 250 252 251 252 250 247 247 247 247 249 252 255 258 262 265 264 261
57 211 195 123 137 121 125 132 186 91 55 125 7 288 270 277 274 286 298 300 313 310 300 295 275 243 243 247 248 250 250 252 252 250 252 251 254 256 259 261 263 265 267 266
153 214 142 123 143 132 121 151 181 144 69 66 335 311 329 298 337 347 342 317 359 354 18 55 64 95 228 236 243 247 250 249 252 253 252 253 253 256 258 258 260 262 264 266
162 150 139 126 162 126 172 190 134 127 87 210 15 284 304 330 335 33 36 57 60 61 65 73 70 66 58 48 299 258 254 252 253 252 253 255 257 258 264 266 268 267 267 268
219 153 142 135 191 153 179 123 116 96 94 78 339 82 272 8 38 2 16 54 62 66 71 70 68 64 58 53 48 45 28 294 267 259 257 257 259 263 266 268 270 271 272 272
99 62 156 160 74 91 155 79 50 58 92 30 260 149 283 110 73 14 30 55 67 78 80 79 77 74 69 65 60 54 48 42 25 340 288 272 266 266 268 270 272 275 276 276
72 118 313 124 83 47 86 90 19 9 19 212 2 90 237 272 91 117 58 68 78 73 71 68 64 63 62 60 58 56 52 48 42 33 10 324 292 275 273 273 274 275 277 277
155 205 171 185 171 165 174 162 156 191 186 205 76 223 257 350 97 94 91 83 80 72 66 60 55 51 51 45 43 41 39 39 36 32 25 8 336 308 293 286 282 279 278 279
134 227 343 86 136 147 187 182 161 105 28 62 216 275 21 6 55 77 81 70 67 67 62 59 53 41 33 26 20 14 17 17 14 16 14 11 1 345 322 301 290 288 287 287
199 118 356 88 103 34 161 158 81 3 131 216 273 283 191 183 137 96 61 63 62 59 64 59 44 33 24 13 13 11 12 8 6 2 355 350 347 343 334 325 315 306 304 298
147 107 253 129 214 163 130 168 58 116 147 162 157 248 185 161 163 114 76 63 63 57 53 42 35 30 31 29 24 22 15 8 2 358 353 344 337 332 329 324 315 307 303 301
192 122 156 201 282 265 179 181 153 145 213 262 142 262 152 152 137 122 109 94 91 85 61 45 39 39 33 31 29 27 25 17 15 9 2 353 342 334 327 322 318 312 307 301
182 198 78 2 351 358 206 186 130 105 84 192 143 238 169 149 136 124 125 118 105 90 74 59 41 30 21 16 15 12 7 2 357 352 347 343 339 335 330 321 312 307 305 304
125 121 198 215 182 137 188 184 182 162 173 171 216 145 201 206 168 151 138 126 109 87 64 46 31 20 9 1 357 355 353 350 346 344 341 338 338 338 335 330 324 317 309 304
115 147 104 56 53 108 166 176 179 193 211 190 196 173 200 201 183 168 148 131 110 78 45 24 12 3 354 347 345 343 342 341 338 337 335 333 331 330 329 328 326 322 317 311
3 115 123 137 61 50 169 178 183 171 147 109 156 230 218 157 143 148 147 125 82 55 31 14 4 355 353 351 346 342 336 333 331 329 328 326 325 325 325 323 321 321 321 318
112 126 139 188 114 75 276 207 185 177 184 145 197 192 149 151 161 174 164 138 81 40 17 3 0 355 348 341 337 337 333 330 328 326 325 324 322 321 319 318 318 318 316 314
157 137 101 148 129 199 230 61 150 181 190 210 122 150 158 168 184 179 180 166 115 50 17 1 351 343 336 331 329 329 328 326 323 321 319 320 319 318 317 316 315 315 314 314
163 129 107 154 197 310 241 215 158 168 250 207 167 157 167 153 163 213 184 163 137 10 351 347 341 338 335 331 327 325 323 321 319 317 317 317 317 316 316 316 316 314 312 312
135 34 150 137 139 210 239 263 140 94 274 192 187 156 154 152 156 244 170 169 262 310 312 316 321 325 328 327 325 322 320 318 314 312 310 310 311 311 311 311 311 312 311 310
159 144 173 166 184 284 224 187 145 107 236 161 164 150 151 149 143 157 171 227 284 297 307 314 317 320 322 321 318 315 313 313 310 308 306 306 308 309 310 308 308 309 308 308
172 165 170 121 113 260 172 140 168 172 136 137 136 144 147 146 151 170 219 274 303 306 308 312 312 313 316 318 316 316 316 313 311 310 309 308 305 305 308 308 307 308 308 307
209 185 176 180 202 22 171 146 180 157 150 155 160 162 172 179 228 291 303 308 308 308 307 307 308 309 311 315 314 312 314 311 310 311 310 308 305 303 303 303 304 306 308 308
269 192 140 103 193 168 164 147 151 146 154 162 169 176 206 264 283 292 300 303 304 304 305 307 309 310 311 314 312 311 311 310 309 307 310 308 304 302 300 301 303 303 304 305
182 149 158 275 91 133 179 171 165 159 162 168 188 236 271 286 291 293 294 297 300 303 306 308 309 309 309 309 308 307 307 305 303 303 304 305 303 301 301 302 307 302 301 302
187 165 176 212 174 165 190 187 187 190 188 219 261 275 280 281 284 287 292 296 300 303 305 304 304 304 307 308 309 309 307 302 300 299 300 302 303 303 302 303 304 301 299 302